Tracking 30923 objects as of 1-Jul-2025
HD Live streaming from Space Station
objects crossing your sky now

CZ-11 R/B

Track CZ-11 R/B now!
10-day predictions


NORAD ID: 43872
Int'l Code: 2018-108B
Perigee: 654.2 km
Apogee: 1,135.8 km
Inclination: 100.4 °
Period: 102.7 minutes
Semi major axis: 7265 km
RCS: Unknown
Launch date: December 21, 2018
Source: People's Republic of China (PRC)
Launch site: Jiuquan Satellite Launch Center, China (JSC)

Note: This is a ROCKET BODY
Your satellite tracking list
Your tracking list is empty




NASA's NSSDC Master Catalog

Two Line Element Set (TLE):
1 43872U 18108B   25181.60623755  .00000671  00000-0  29715-3 0  9994
2 43872 100.4086 194.3929 0331452 132.3590 230.6148 14.01717422333645
Source of the keplerian elements: AFSPC